N3486 LIMJ-LFMD

Flight info

Callsign N3486
Flight time 0h 52m
Altitude 17000
Route DORAV DCT BASIP DCT NOSTA DCT IVLAM/N0282F160 DCT ORKAC
Aircraft PC12/L-SDFGRWY/S

Departure

Time 2026-04-21 20:18
Airport Genoa Cristoforo Colombo Airport (LIMJ)

Arrival

Time 2026-04-21 21:11
Airport Cannes Mandelieu Airport (LFMD)
Time Latitude Longitude Altitude Speed Heading
2026-04-21 19:47 44.41272 8.85078 17 ft 0 kts 195°
2026-04-21 20:02 44.41272 8.85077 17 ft 0 kts 195°
2026-04-21 20:02 44.41270 8.85077 17 ft 0 kts 193°
2026-04-21 20:03 44.41264 8.85078 -10 ft 3 kts 155°
2026-04-21 20:03 44.41289 8.85108 17 ft 10 kts 357°
2026-04-21 20:03 44.41305 8.85105 17 ft 3 kts 352°
2026-04-21 20:03 44.41333 8.85083 17 ft 7 kts 285°
2026-04-21 20:04 44.41339 8.84994 17 ft 12 kts 241°
2026-04-21 20:04 44.41249 8.84922 17 ft 18 kts 197°
2026-04-21 20:04 44.41164 8.84889 16 ft 0 kts 198°
2026-04-21 20:16 44.41163 8.84889 16 ft 1 kts 197°
2026-04-21 20:16 44.41109 8.84856 16 ft 14 kts 206°
2026-04-21 20:17 44.41079 8.84783 16 ft 1 kts 284°
2026-04-21 20:17 44.41115 8.84595 17 ft 50 kts 285°
2026-04-21 20:17 44.41259 8.83866 21 ft 100 kts 284°
2026-04-21 20:17 44.41464 8.82823 201 ft 121 kts 286°
2026-04-21 20:18 44.41624 8.82049 437 ft 127 kts 286°
2026-04-21 20:18 44.41923 8.80455 1018 ft 129 kts 284°
2026-04-21 20:18 44.42102 8.79196 1457 ft 131 kts 277°
2026-04-21 20:18 44.42080 8.77968 1943 ft 123 kts 259°
2026-04-21 20:19 44.41743 8.76905 2246 ft 121 kts 232°
2026-04-21 20:19 44.41085 8.76185 2522 ft 120 kts 205°
2026-04-21 20:19 44.40268 8.75915 2751 ft 124 kts 185°
2026-04-21 20:19 44.39401 8.75911 3022 ft 122 kts 174°
2026-04-21 20:20 44.38615 8.76252 3336 ft 117 kts 150°
2026-04-21 20:20 44.37902 8.76859 3554 ft 122 kts 148°
2026-04-21 20:20 44.37141 8.77516 3612 ft 139 kts 148°
2026-04-21 20:20 44.36328 8.78195 3919 ft 134 kts 148°
2026-04-21 20:21 44.35500 8.78890 4242 ft 142 kts 149°
2026-04-21 20:21 44.34615 8.79540 4616 ft 146 kts 153°
2026-04-21 20:21 44.33704 8.80188 5003 ft 148 kts 153°
2026-04-21 20:21 44.32785 8.80848 5397 ft 149 kts 153°
2026-04-21 20:22 44.31841 8.81449 5790 ft 149 kts 162°
2026-04-21 20:22 44.29737 8.81506 6496 ft 155 kts 184°
2026-04-21 20:22 44.28650 8.81435 6842 ft 158 kts 185°
2026-04-21 20:23 44.27545 8.81358 7190 ft 160 kts 185°
2026-04-21 20:23 44.26422 8.81278 7541 ft 163 kts 186°
2026-04-21 20:23 44.25283 8.81197 7894 ft 165 kts 186°
2026-04-21 20:23 44.24131 8.81115 8250 ft 167 kts 186°
2026-04-21 20:24 44.22966 8.81033 8608 ft 169 kts 187°
2026-04-21 20:24 44.21769 8.80947 8910 ft 176 kts 187°
2026-04-21 20:24 44.20527 8.80859 9209 ft 182 kts 187°
2026-04-21 20:24 44.19245 8.80769 9517 ft 187 kts 187°
2026-04-21 20:25 44.17934 8.80676 9842 ft 189 kts 187°
2026-04-21 20:25 44.16615 8.80583 10139 ft 190 kts 188°
2026-04-21 20:25 44.15292 8.80490 10426 ft 191 kts 188°
2026-04-21 20:25 44.13960 8.80396 10715 ft 192 kts 188°
2026-04-21 20:26 44.12634 8.80229 10989 ft 188 kts 201°
2026-04-21 20:26 44.11638 8.79209 11263 ft 176 kts 238°
2026-04-21 20:26 44.11126 8.77712 11551 ft 170 kts 262°
2026-04-21 20:26 44.11148 8.76102 11850 ft 166 kts 285°
2026-04-21 20:27 44.11668 8.74685 12154 ft 166 kts 308°
2026-04-21 20:27 44.12594 8.73724 12458 ft 170 kts 332°
2026-04-21 20:27 44.13775 8.73432 12772 ft 176 kts 354°
2026-04-21 20:27 44.14983 8.73328 13087 ft 173 kts 345°
2026-04-21 20:28 44.16171 8.73095 13404 ft 173 kts 346°
2026-04-21 20:28 44.17372 8.72922 13730 ft 174 kts 347°
2026-04-21 20:28 44.18575 8.72761 14019 ft 174 kts 347°
2026-04-21 20:28 44.19776 8.72597 14302 ft 172 kts 346°
2026-04-21 20:29 44.20780 8.71937 14557 ft 161 kts 309°
2026-04-21 20:29 44.21467 8.70735 14841 ft 159 kts 315°
2026-04-21 20:29 44.22360 8.69833 15132 ft 158 kts 320°
2026-04-21 20:29 44.23222 8.68898 15430 ft 156 kts 317°
2026-04-21 20:30 44.24052 8.67931 15728 ft 155 kts 316°
2026-04-21 20:30 44.24872 8.66966 16026 ft 154 kts 316°
2026-04-21 20:30 44.25682 8.66005 16325 ft 151 kts 314°
2026-04-21 20:30 44.26076 8.64721 16602 ft 153 kts 272°
2026-04-21 20:31 44.25657 8.63310 16898 ft 167 kts 243°
2026-04-21 20:31 44.24796 8.62119 16968 ft 178 kts 240°
2026-04-21 20:31 44.24071 8.60694 16982 ft 185 kts 246°
2026-04-21 20:31 44.23308 8.59173 16980 ft 197 kts 244°
2026-04-21 20:32 44.22471 8.57612 16981 ft 204 kts 243°
2026-04-21 20:32 44.21606 8.56013 16977 ft 209 kts 242°
2026-04-21 20:32 44.20728 8.54378 16977 ft 212 kts 242°
2026-04-21 20:32 44.19840 8.52722 16980 ft 215 kts 242°
2026-04-21 20:33 44.18944 8.51052 16977 ft 216 kts 242°
2026-04-21 20:33 44.18043 8.49373 16976 ft 217 kts 242°
2026-04-21 20:33 44.17139 8.47689 16973 ft 217 kts 242°
2026-04-21 20:33 44.16230 8.45999 16978 ft 218 kts 242°
2026-04-21 20:34 44.15322 8.44309 16977 ft 218 kts 242°
2026-04-21 20:34 44.14410 8.42614 16975 ft 221 kts 242°
2026-04-21 20:34 44.13463 8.40838 16978 ft 235 kts 242°
2026-04-21 20:34 44.12459 8.38972 16978 ft 246 kts 241°
2026-04-21 20:35 44.11415 8.37043 16977 ft 253 kts 241°
2026-04-21 20:35 44.10349 8.35070 16975 ft 257 kts 240°
2026-04-21 20:35 44.09265 8.33063 16974 ft 261 kts 240°
2026-04-21 20:35 44.08172 8.31039 16972 ft 263 kts 240°
2026-04-21 20:36 44.07072 8.29005 16971 ft 264 kts 240°
2026-04-21 20:36 44.05966 8.26958 16975 ft 265 kts 240°
2026-04-21 20:36 44.04858 8.24911 16968 ft 266 kts 240°
2026-04-21 20:36 44.03745 8.22855 16969 ft 266 kts 240°
2026-04-21 20:37 44.02631 8.20801 16964 ft 266 kts 240°
2026-04-21 20:37 44.01516 8.18743 16971 ft 267 kts 240°
2026-04-21 20:37 44.00399 8.16685 16966 ft 267 kts 240°
2026-04-21 20:37 43.99658 8.15321 16959 ft 267 kts 240°
2026-04-21 20:38 43.98539 8.13262 16963 ft 268 kts 240°
2026-04-21 20:38 43.97055 8.10533 16964 ft 267 kts 240°
2026-04-21 20:38 43.95935 8.08473 16957 ft 268 kts 240°
2026-04-21 20:38 43.94814 8.06416 16957 ft 267 kts 240°
2026-04-21 20:39 43.93694 8.04362 16952 ft 267 kts 240°
2026-04-21 20:39 43.92576 8.02312 16963 ft 266 kts 240°
2026-04-21 20:39 43.91821 8.00926 16951 ft 265 kts 240°
2026-04-21 20:39 43.90709 7.98891 16952 ft 265 kts 240°
2026-04-21 20:40 43.89594 7.96849 16953 ft 265 kts 240°
2026-04-21 20:40 43.88637 7.94717 16949 ft 255 kts 252°
2026-04-21 20:40 43.87945 7.92450 16953 ft 257 kts 252°
2026-04-21 20:40 43.87154 7.90210 16950 ft 260 kts 249°
2026-04-21 20:41 43.86346 7.88008 16954 ft 260 kts 250°
2026-04-21 20:41 43.85540 7.85727 16955 ft 261 kts 250°
2026-04-21 20:41 43.84750 7.83462 16948 ft 261 kts 250°
2026-04-21 20:41 43.83954 7.81203 16946 ft 261 kts 249°
2026-04-21 20:42 43.83154 7.78949 16948 ft 261 kts 249°
2026-04-21 20:42 43.82363 7.76717 16948 ft 262 kts 250°
2026-04-21 20:42 43.81697 7.74418 16945 ft 253 kts 264°
2026-04-21 20:42 43.81533 7.71988 16942 ft 250 kts 267°
2026-04-21 20:43 43.81214 7.69631 16945 ft 253 kts 262°
2026-04-21 20:43 43.80832 7.67207 16948 ft 255 kts 263°
2026-04-21 20:43 43.80511 7.64791 16944 ft 256 kts 264°
2026-04-21 20:43 43.80205 7.62361 16949 ft 257 kts 264°
2026-04-21 20:44 43.79881 7.59929 16949 ft 257 kts 263°
2026-04-21 20:44 43.79154 7.57659 16947 ft 264 kts 242°
2026-04-21 20:44 43.78217 7.55504 16942 ft 259 kts 250°
2026-04-21 20:44 43.77497 7.53258 16944 ft 259 kts 252°
2026-04-21 20:45 43.76721 7.50998 16946 ft 262 kts 248°
2026-04-21 20:45 43.75853 7.48778 16948 ft 263 kts 247°
2026-04-21 20:45 43.74987 7.46552 16948 ft 263 kts 248°
2026-04-21 20:45 43.74140 7.44303 16947 ft 263 kts 248°
2026-04-21 20:46 43.73295 7.42060 16940 ft 263 kts 248°
2026-04-21 20:46 43.72457 7.39865 16938 ft 250 kts 248°
2026-04-21 20:46 43.71667 7.37797 16933 ft 238 kts 248°
2026-04-21 20:46 43.70887 7.35729 15953 ft 253 kts 248°
2026-04-21 20:47 43.70044 7.33515 14736 ft 266 kts 245°
2026-04-21 20:47 43.68758 7.31591 13526 ft 284 kts 220°
2026-04-21 20:47 43.66891 7.30717 12341 ft 289 kts 190°
2026-04-21 20:47 43.64974 7.31274 11830 ft 278 kts 156°
2026-04-21 20:48 43.63437 7.32765 11932 ft 266 kts 145°
2026-04-21 20:48 43.61986 7.34365 11938 ft 271 kts 144°
2026-04-21 20:48 43.60484 7.36014 11935 ft 279 kts 144°
2026-04-21 20:48 43.58944 7.37700 11951 ft 285 kts 144°
2026-04-21 20:49 43.57385 7.39403 11959 ft 288 kts 144°
2026-04-21 20:49 43.55810 7.41122 11961 ft 290 kts 144°
2026-04-21 20:49 43.54225 7.42851 11957 ft 291 kts 144°
2026-04-21 20:49 43.52625 7.44594 11549 ft 285 kts 144°
2026-04-21 20:50 43.51114 7.46251 11047 ft 271 kts 144°
2026-04-21 20:50 43.49668 7.47842 10549 ft 262 kts 144°
2026-04-21 20:50 43.48262 7.49390 10065 ft 256 kts 144°
2026-04-21 20:50 43.46880 7.50913 9557 ft 252 kts 143°
2026-04-21 20:51 43.45522 7.52409 9037 ft 249 kts 143°
2026-04-21 20:51 43.44179 7.53881 8523 ft 246 kts 143°
2026-04-21 20:51 43.42847 7.55338 8023 ft 243 kts 143°
2026-04-21 20:51 43.41526 7.56780 7527 ft 241 kts 143°
2026-04-21 20:52 43.40221 7.58198 7041 ft 238 kts 143°
2026-04-21 20:52 43.38936 7.59593 6945 ft 235 kts 143°
2026-04-21 20:52 43.37636 7.61001 6582 ft 245 kts 144°
2026-04-21 20:52 43.36258 7.62478 5855 ft 255 kts 143°
2026-04-21 20:53 43.34847 7.63972 5129 ft 256 kts 144°
2026-04-21 20:53 43.33437 7.65443 4386 ft 253 kts 144°
2026-04-21 20:53 43.32045 7.66884 3647 ft 247 kts 142°
2026-04-21 20:53 43.31012 7.68684 2946 ft 240 kts 111°
2026-04-21 20:54 43.31003 7.70817 2961 ft 222 kts 71°
2026-04-21 20:54 43.31930 7.72432 2979 ft 218 kts 33°
2026-04-21 20:54 43.33369 7.72981 2986 ft 216 kts
2026-04-21 20:54 43.34868 7.73094 2993 ft 216 kts
2026-04-21 20:55 43.36371 7.73200 2992 ft 216 kts
2026-04-21 20:55 43.37872 7.73302 2996 ft 216 kts
2026-04-21 20:55 43.39377 7.73400 2997 ft 217 kts
2026-04-21 20:55 43.40875 7.73361 2978 ft 216 kts 348°
2026-04-21 20:56 43.42108 7.72284 2977 ft 217 kts 309°
2026-04-21 20:56 43.42575 7.70347 2987 ft 218 kts 269°
2026-04-21 20:56 43.42147 7.68375 2991 ft 216 kts 244°
2026-04-21 20:56 43.41486 7.66514 2997 ft 217 kts 243°
2026-04-21 20:57 43.40825 7.64643 3004 ft 218 kts 243°
2026-04-21 20:57 43.40159 7.62769 3005 ft 218 kts 243°
2026-04-21 20:57 43.39489 7.60899 3004 ft 218 kts 243°
2026-04-21 20:57 43.38816 7.59027 3003 ft 218 kts 243°
2026-04-21 20:58 43.38142 7.57156 3001 ft 218 kts 243°
2026-04-21 20:58 43.37469 7.55285 3001 ft 218 kts 243°
2026-04-21 20:58 43.37064 7.53309 2987 ft 217 kts 265°
2026-04-21 20:58 43.37028 7.51239 2990 ft 217 kts 269°
2026-04-21 20:59 43.37009 7.49163 2993 ft 217 kts 269°
2026-04-21 20:59 43.36990 7.47085 2995 ft 218 kts 269°
2026-04-21 20:59 43.36882 7.45014 2993 ft 217 kts 263°
2026-04-21 20:59 43.36704 7.42953 2990 ft 218 kts 263°
2026-04-21 21:00 43.36522 7.40845 2567 ft 226 kts 263°
2026-04-21 21:00 43.36335 7.38674 2072 ft 230 kts 263°
2026-04-21 21:00 43.36152 7.36539 1984 ft 218 kts 263°
2026-04-21 21:00 43.35978 7.34518 1983 ft 209 kts 263°
2026-04-21 21:01 43.35808 7.32552 1988 ft 205 kts 263°
2026-04-21 21:01 43.35641 7.30616 1985 ft 203 kts 263°
2026-04-21 21:01 43.35474 7.28696 1985 ft 202 kts 263°
2026-04-21 21:01 43.35308 7.26784 1988 ft 201 kts 263°
2026-04-21 21:02 43.35143 7.24879 1985 ft 201 kts 263°
2026-04-21 21:02 43.34974 7.22949 1987 ft 208 kts 263°
2026-04-21 21:02 43.34800 7.20957 1997 ft 212 kts 263°
2026-04-21 21:02 43.34624 7.18934 1999 ft 214 kts 263°
2026-04-21 21:03 43.34449 7.16923 2002 ft 215 kts 263°
2026-04-21 21:03 43.34271 7.14877 2003 ft 216 kts 263°
2026-04-21 21:03 43.34093 7.12826 1999 ft 216 kts 263°
2026-04-21 21:03 43.33914 7.10773 2002 ft 216 kts 263°
2026-04-21 21:04 43.33736 7.08720 2002 ft 217 kts 263°
2026-04-21 21:04 43.33557 7.06666 2003 ft 217 kts 263°
2026-04-21 21:04 43.33615 7.04627 1984 ft 215 kts 284°
2026-04-21 21:04 43.34143 7.02718 1984 ft 214 kts 297°
2026-04-21 21:05 43.34844 7.00912 1983 ft 215 kts 298°
2026-04-21 21:05 43.35550 6.99100 1984 ft 215 kts 298°
2026-04-21 21:05 43.36256 6.97285 1988 ft 215 kts 299°
2026-04-21 21:05 43.37139 6.95709 2120 ft 207 kts 315°
2026-04-21 21:06 43.38358 6.94740 2219 ft 202 kts 349°
2026-04-21 21:06 43.39740 6.94851 2330 ft 202 kts 14°
2026-04-21 21:06 43.41099 6.95390 2420 ft 202 kts 19°
2026-04-21 21:06 43.42411 6.96019 2589 ft 197 kts 19°
2026-04-21 21:07 43.43707 6.96486 2478 ft 183 kts 13°
2026-04-21 21:07 43.44884 6.96753 2218 ft 159 kts
2026-04-21 21:07 43.45860 6.96696 1962 ft 129 kts 355°
2026-04-21 21:07 43.46703 6.96540 1745 ft 116 kts 354°
2026-04-21 21:08 43.47455 6.96346 1497 ft 107 kts 351°
2026-04-21 21:08 43.48194 6.96159 1318 ft 106 kts 353°
2026-04-21 21:08 43.48904 6.96036 1179 ft 102 kts 356°
2026-04-21 21:08 43.49596 6.95960 1085 ft 99 kts 357°
2026-04-21 21:09 43.50280 6.95880 952 ft 99 kts 354°
2026-04-21 21:09 43.50968 6.95749 821 ft 100 kts 353°
2026-04-21 21:09 43.51656 6.95616 662 ft 99 kts 353°
2026-04-21 21:09 43.52344 6.95520 500 ft 100 kts 354°
2026-04-21 21:10 43.53017 6.95402 333 ft 96 kts 353°
2026-04-21 21:10 43.53672 6.95281 167 ft 95 kts 353°
2026-04-21 21:10 43.54318 6.95171 31 ft 87 kts 353°
2026-04-21 21:10 43.54835 6.95079 15 ft 60 kts 352°
2026-04-21 21:11 43.54975 6.95056 15 ft 3 kts 18°
2026-04-21 21:11 43.55003 6.95214 16 ft 23 kts 114°
2026-04-21 21:11 43.54845 6.95288 16 ft 28 kts 176°
2026-04-21 21:11 43.54790 6.95293 15 ft 0 kts 172°